Hourly Data Report for July 30, 2004

TORONTO CITY
ONTARIO

43°40'00.000" N
79°24'00.000" W
112.50 m
6158355
71508
XTO

Download Data

Hourly Data (July 2004)
Hourly Data Report for July 30, 2004
TIME
LST
Temp Definition
°C
Dew Point Definition
°C
Rel Hum Definition
%
Precip. Amount Definition
mm

Wind Dir Definition
10's deg

Wind Spd Definition
km/h
Visibility Definition
km
Stn Press Definition
kPa
Hmdx Definition


Wind Chill Definition


Weather Definition


00:00 21.8 18.3 81   LegendMM LegendMM LegendMM 100.29 28   LegendNANA
01:00 21.3 17.9 81   LegendMM LegendMM LegendMM 100.25 27   LegendNANA
02:00 21.0 18.1 84   LegendMM LegendMM LegendMM 100.20 27   LegendNANA
03:00 20.7 18.6 88   LegendMM LegendMM LegendMM 100.16 27   LegendNANA
04:00 20.7 19.1 91   LegendMM LegendMM LegendMM 100.16 28   LegendNANA
05:00 20.6 19.5 93   LegendMM LegendMM LegendMM 100.17 28   LegendNANA
06:00 20.9 19.8 93   LegendMM LegendMM LegendMM 100.16 28   LegendNANA
07:00 21.5 20.2 92   LegendMM LegendMM LegendMM 100.17 29   LegendNANA
08:00 22.5 19.4 83   LegendMM LegendMM LegendMM 100.16 30   LegendNANA
09:00 23.1 19.9 82   LegendMM LegendMM LegendMM 100.14 31   LegendNANA
10:00 23.9 20.0 79   LegendMM LegendMM LegendMM 100.14 31   LegendNANA
11:00 23.6 20.0 80   LegendMM LegendMM LegendMM 100.14 31   LegendNANA
12:00 24.8 20.5 77   LegendMM LegendMM LegendMM 100.10 33   LegendNANA
13:00 25.0 20.6 77   LegendMM LegendMM LegendMM 100.09 33   LegendNANA
14:00 23.1 20.0 83   LegendMM LegendMM LegendMM 100.06 31   LegendNANA
15:00 22.0 20.6 92   LegendMM LegendMM LegendMM 100.06 30   LegendNANA
16:00 22.3 21.5 95   LegendMM LegendMM LegendMM 100.02 31   LegendNANA
17:00 22.6 21.6 94   LegendMM LegendMM LegendMM 100.02 32   LegendNANA
18:00 22.7 21.6 94   LegendMM LegendMM LegendMM 100.00 32   LegendNANA
19:00 22.6 21.5 94   LegendMM LegendMM LegendMM 99.94 31   LegendNANA
20:00 22.3 21.5 95   LegendMM LegendMM LegendMM 99.95 31   LegendNANA
21:00 22.1 21.3 95   LegendMM LegendMM LegendMM 100.02 31   LegendNANA
22:00 22.1 21.4 96   LegendMM LegendMM LegendMM 100.03 31   LegendNANA
23:00 21.8 21.1 96   LegendMM LegendMM LegendMM 99.94 30   LegendNANA

Notes on Data Quality.

Legend

  • E = Estimated
  • M = Missing
  • NA = Not Available*
  • [empty] = Indicates an unobserved value
Date modified: